Content
SEND FEEDBACK

Daily
Averages
Monthly
Summary
Canada

QUEBEC CITY, QUEBEC


Home > North America > Canada > Quebec
Elevation: 239 feet     Latitude: 46 48N     Longitude: 071 23W

WEATHER
 
SELECT A DAY
Number of Records: 192,604;   Date Range: 6/30/96 - 8/31/14
 
SHARE

PRINT THIS DATA

[ ← Previous Day ]
WEATHER ALMANAC - APRIL 20, 2013
[ Next Day → ]
[ °C ]   °F
Weather ElementAverageHighLow
Temperature42.8 °F50 °F (1:00 am)33.8 °F (11:00 pm)
Dewpoint25.2 °F46.4 °F (1:00 am) (7:00 pm)
Humidity69.6 %88 % (5:00 pm)37 % (2:00 pm)
Wind Speed18.5 mph35.7 mph (12:00 pm)
Wind Gust47.2 mph (2:00 pm)
Weather ElementAverage
Visibility17.2 mi
Wind DirectionWSW (248.3 °)

Weather ElementTotal
Precipitation---
Heating Degree Days23.1 (Base 65)
Averaged from 40 records on April 20, 2013
WEATHER CONDITIONS BREAKOUT
WIND DIRECTION BREAKOUT
WEATHER BY HOUR - APRIL 20, 2013
[ °C ]   °F
Local TimeTemperatureDewpointHumidityBarometerVisibilityWind DirectionWind SpeedGust SpeedPrecipitationEventsConditions
1:00 AM50.0 °F46.4 °F87 %29.52 in10.0 miWSW (240°)23.0 mph32.2 mphRainLight Rain Showers
2:00 AM45.0 °F41.0 °F81 %29.55 inWest (280°)17.3 mph
2:00 AM46.4 °F41.0 °F81 %29.57 in6.0 miWNW (290°)20.7 mph33.4 mphRainLight Rain Showers
2:50 AM44.6 °F0.0 °F15.0 miWest (270°)11.5 mphOvercast
3:00 AM42.8 °F37.4 °F81 %29.59 in15.0 miWest (270°)10.4 mphOvercast
4:00 AM42.8 °F37.4 °F81 %29.60 in15.0 miSW (220°)8.1 mphRainLight Rain Showers
5:00 AM42.8 °F39.2 °F87 %29.60 in15.0 miWest (260°)8.1 mphRainLight Rain Showers
6:00 AM42.8 °F39.2 °F87 %29.61 in7.0 miSW (220°)13.8 mphRainLight Rain Showers
6:26 AM42.8 °F0.0 °F8.0 miSW (220°)16.1 mphRainLight Rain Showers
6:47 AM42.8 °F0.0 °F10.0 miSW (220°)16.1 mph23.0 mphOvercast
7:00 AM42.8 °F37.4 °F81 %29.62 in10.0 miSW (230°)13.8 mph20.7 mphOvercast
8:00 AM42.0 °F38.0 °F79 %29.62 inSW (220°)6.9 mph
8:00 AM42.8 °F37.4 °F81 %29.63 in20.0 miSW (220°)15.0 mph20.7 mphOvercast
9:00 AM42.8 °F35.6 °F76 %29.63 in20.0 miSW (230°)15.0 mph21.9 mphOvercast
10:00 AM42.8 °F33.8 °F70 %29.64 in25.0 miSW (220°)16.1 mph25.3 mphOvercast
11:00 AM44.0 °F34.0 °F58 %29.63 inSW (230°)15.0 mph
11:00 AM44.6 °F33.8 °F66 %29.64 in25.0 miSW (230°)21.9 mph29.9 mphOvercast
11:10 AM42.8 °F0.0 °F15.0 miWSW (240°)27.6 mph35.7 mphRainLight Rain Showers
11:29 AM44.6 °F0.0 °F20.0 miWSW (240°)26.5 mph34.5 mphMostly Cloudy
12:00 PM42.8 °F33.8 °F70 %29.66 in15.0 miWest (270°)35.7 mph41.4 mphRainLight Rain Showers
12:23 PM42.8 °F0.0 °F20.0 miWSW (250°)28.8 mph34.5 mphRainLight Rain Showers
12:42 PM46.4 °F0.0 °F25.0 miWSW (240°)18.4 mph27.6 mphMostly Cloudy
1:00 PM48.2 °F35.6 °F62 %29.66 in30.0 miWSW (240°)26.5 mph38.0 mphScattered Clouds
2:00 PM48.0 °F30.0 °F37 %29.67 inSW (230°)20.7 mph
2:00 PM46.4 °F28.4 °F50 %29.68 in30.0 miWSW (240°)34.5 mph47.2 mphMostly Cloudy
2:17 PM46.4 °F0.0 °F30.0 miWSW (240°)29.9 mph43.7 mphRainLight Rain Showers
3:00 PM46.4 °F37.4 °F71 %29.72 in20.0 miWest (260°)23.0 mph31.1 mphMostly Cloudy
4:00 PM48.2 °F32.0 °F54 %29.75 in20.0 miWest (270°)29.9 mph39.1 mphMostly Cloudy
4:23 PM42.8 °F0.0 °F15.0 miWest (260°)18.4 mphRainLight Rain Showers
5:00 PM39.2 °F33.8 °F81 %29.81 in15.0 miWSW (250°)20.7 mph28.8 mphRainLight Rain Showers
5:00 PM38.0 °F36.0 °F88 %29.80 inSW (230°)13.8 mph
5:35 PM41.0 °F0.0 °F15.0 miWest (260°)19.6 mph27.6 mphMostly Cloudy
6:00 PM41.0 °F32.0 °F70 %29.86 in15.0 miWest (260°)16.1 mph25.3 mphMostly Cloudy
7:00 PM41.0 °F28.4 °F61 %29.90 in20.0 miWest (260°)16.1 mphMostly Cloudy
8:00 PM39.2 °F26.6 °F61 %29.96 in15.0 miWest (280°)18.4 mphMostly Cloudy
8:00 PM39.0 °F29.0 °F55 %29.95 inWest (260°)11.5 mph
9:00 PM37.4 °F24.8 °F60 %30.02 in15.0 miWest (270°)18.4 mphMostly Cloudy
10:00 PM35.6 °F24.8 °F65 %30.06 in15.0 miWest (270°)13.8 mph20.7 mphMostly Cloudy
11:00 PM36.0 °F21.0 °F41 %30.10 inWest (280°)11.5 mph
11:00 PM33.8 °F23.0 °F65 %30.11 in15.0 miWest (260°)11.5 mphMostly Cloudy
Hourly data recorded from CYQB, located miles away from Quebec City, Quebec







STORIES FROM OUR PARTNERS